Terminal Aerodrome Forecast
Issued by NWS

Home | Current Version | Previous Version | Text Only | Print | Product List | Glossary On
Versions: 1 2 3 4 5 6 7 8 9 10 11 12 13
000
FTUS45 KABQ 241735
TAFAEG
TAF
KAEG 241735Z 2418/2518 31028G38KT P6SM FEW050 SCT200
     FM250000 32013KT P6SM SKC
     FM250600 30006KT P6SM SKC=

USA.gov is the U.S. government's official web portal to all federal, state and local government web resources and services.